Flag for U.S.A. Weather past 2 weeks in Moreno Valley, California, U.S.A.

39 °F

Passing clouds.

Feels Like: 39 °F
Forecast: 37 / 57 °F
Wind: No wind

Location: Riverside / March Air Force Base

Current Time: Nov 25, 2015 at 11:41:06 PM

Latest Report: Nov 25, 2015 at 10:58 PM

Visibility: 10 mi

Pressure: 29.95 "Hg

Humidity: 73%

Dew point: 31 °F

Location of Moreno ValleyLocation

Historic Weather in Moreno Valley — Graph


Moreno Valley temperature yesterday

Maximum temperature yesterday: 72 °F (at 12:58 PM)
Minimum temperature yesterday: 37 °F (at 5:58 AM)
Average temperature yesterday: 54 °F

Past Weeks' High & Low Weather Summary

High85 °F (Nov 20, 12:58 PM)100% (Nov 25, 3:04 AM)30.32 "Hg (Nov 25, 3:04 AM)
Low33 °F (Nov 11, 5:58 AM)7% (Nov 12, 12:58 PM)29.81 "Hg (Nov 25, 2:58 AM)
Average57 °F33%29.98 "Hg
* Reported Nov 10 9:58 PM — Nov 25 9:58 PM, Moreno Valley, Weather by CustomWeather, © 2015

Note: Actual official high and low records may vary slightly from our data, if they occured in-between our weather recording intervals... More about our weather records


Moreno Valley weather history for previous 24 hours

Time TempWeatherWind HumidityBarometerVisibility
9:58 PM
Wed, Nov 25
38 °FClear.No wind73%29.94 "Hg10 mi
8:58 PM39 °FClear.No wind73%29.93 "Hg10 mi
7:58 PM42 °FClear.No wind68%29.93 "Hg10 mi
6:58 PM48 °FClear.No wind60%29.92 "Hg10 mi
5:58 PM49 °FClear.6 mph60%29.90 "Hg10 mi
4:58 PM51 °FClear.9 mph56%29.88 "Hg10 mi
3:58 PM55 °FSunny.12 mph43%29.86 "Hg10 mi
2:58 PM57 °FSunny.14 mph41%29.85 "Hg10 mi
1:58 PM56 °FPassing clouds.10 mph45%29.85 "Hg10 mi
12:58 PM59 °FPassing clouds.9 mph39%29.85 "Hg10 mi
11:58 AM58 °FSunny.8 mph38%29.87 "Hg10 mi
10:58 AM56 °FScattered clouds.9 mph49%29.89 "Hg10 mi
9:58 AM54 °FBroken clouds.13 mph60%29.90 "Hg10 mi
8:58 AM52 °FSunny.2 mph68%29.89 "Hg10 mi
7:58 AM51 °FSunny.6 mph79%29.88 "Hg10 mi
6:58 AM47 °FSunny.No wind92%29.86 "Hg10 mi
5:58 AM49 °FPassing clouds.10 mph96%29.84 "Hg10 mi
4:58 AM50 °FPassing clouds.7 mph98%29.83 "Hg10 mi
3:58 AM52 °FDrizzle. Fog.3 mph100%29.81 "Hg6 mi
3:04 AM52 °FDrizzle. Mostly cloudy.10 mph100%29.83 "Hg8 mi
2:58 AM53 °FOvercast.9 mph95%29.81 "Hg10 mi
1:58 AM53 °FMostly cloudy.10 mph85%29.82 "Hg10 mi
12:58 AM53 °FMostly cloudy.7 mph88%29.84 "Hg10 mi
11:58 PM
Tue, Nov 24
51 °FPassing clouds.2 mph94%29.86 "Hg10 mi
Weather by CustomWeather, © 2015

See weather overviewHow to use our weather pages